TimeCST,TemperatureF,Dew PointF,Humidity,Sea Level PressureIn,VisibilityMPH,Wind Direction,Wind SpeedMPH,Gust SpeedMPH,PrecipitationIn,Events,Conditions,WindDirDegrees,DateUTC
12:53 AM,21.9,19.9,92,30.27,8.0,East,11.5,-,N/A,,Overcast,80,2012-11-30 06:53:00
1:53 AM,21.9,21.0,96,30.26,8.0,East,10.4,-,N/A,,Overcast,80,2012-11-30 07:53:00
2:53 AM,21.9,19.9,92,30.26,9.0,ENE,9.2,-,N/A,,Overcast,70,2012-11-30 08:53:00
3:53 AM,21.9,19.9,92,30.26,10.0,ENE,8.1,-,N/A,,Overcast,70,2012-11-30 09:53:00
4:53 AM,21.9,19.0,89,30.26,10.0,NE,8.1,-,N/A,,Overcast,50,2012-11-30 10:53:00
5:27 AM,21.2,17.6,86,30.18,10.0,ENE,9.2,-,N/A,,Overcast,70,2012-11-30 11:27:00
5:41 AM,21.2,17.6,86,30.19,10.0,ENE,11.5,-,N/A,,Overcast,70,2012-11-30 11:41:00
5:53 AM,21.9,16.0,78,30.27,10.0,East,15.0,-,N/A,,Overcast,80,2012-11-30 11:53:00
6:53 AM,21.9,14.0,72,30.28,10.0,ENE,6.9,-,N/A,,Overcast,70,2012-11-30 12:53:00
7:53 AM,21.9,14.0,72,30.30,10.0,East,9.2,-,N/A,,Overcast,80,2012-11-30 13:53:00
8:53 AM,23.0,17.1,78,30.28,10.0,East,10.4,-,N/A,,Overcast,80,2012-11-30 14:53:00
9:21 AM,23.0,17.6,80,30.23,10.0,NNE,5.8,-,N/A,,Overcast,30,2012-11-30 15:21:00
9:53 AM,24.1,19.0,81,30.30,10.0,ENE,8.1,-,N/A,,Overcast,70,2012-11-30 15:53:00
10:53 AM,24.1,21.9,91,30.29,9.0,Variable,5.8,-,N/A,,Overcast,0,2012-11-30 16:53:00
11:49 AM,24.8,23.0,93,30.19,4.0,East,10.4,-,N/A,,Overcast,80,2012-11-30 17:49:00
11:53 AM,25.0,23.0,92,30.27,3.0,East,10.4,-,N/A,,Overcast,80,2012-11-30 17:53:00
12:53 PM,25.0,24.1,96,30.26,5.0,East,10.4,-,N/A,,Overcast,90,2012-11-30 18:53:00
1:53 PM,26.1,24.1,92,30.28,7.0,East,8.1,-,N/A,,Overcast,90,2012-11-30 19:53:00
2:53 PM,26.1,25.0,96,30.26,3.0,East,9.2,-,N/A,,Overcast,90,2012-11-30 20:53:00
3:11 PM,26.6,24.8,93,30.17,2.5,East,8.1,-,N/A,,Overcast,90,2012-11-30 21:11:00
3:38 PM,26.6,26.6,100,30.20,1.2,East,5.8,-,N/A,,Overcast,90,2012-11-30 21:38:00
3:53 PM,27.0,26.1,96,30.29,1.2,East,5.8,-,N/A,,Overcast,80,2012-11-30 21:53:00
4:36 PM,26.6,26.6,100,30.20,0.8,East,8.1,-,N/A,,Mist,100,2012-11-30 22:36:00
4:53 PM,27.0,26.1,96,30.27,0.5,East,9.2,-,N/A,Fog,Light Freezing Fog,90,2012-11-30 22:53:00
5:53 PM,28.0,27.0,96,30.26,0.5,ESE,10.4,-,N/A,Fog,Light Freezing Fog,110,2012-11-30 23:53:00
6:53 PM,28.0,27.0,96,30.24,1.0,ESE,6.9,-,N/A,,Mist,110,2012-12-01 00:53:00
7:24 PM,28.4,26.6,93,30.14,2.5,ESE,9.2,-,N/A,,Overcast,120,2012-12-01 01:24:00
7:31 PM,28.4,26.6,93,30.14,4.0,ESE,11.5,-,N/A,,Overcast,110,2012-12-01 01:31:00
7:53 PM,28.0,27.0,96,30.24,6.0,SE,5.8,16.1,N/A,,Overcast,130,2012-12-01 01:53:00
8:53 PM,28.9,28.0,96,30.23,6.0,ESE,5.8,-,N/A,,Overcast,110,2012-12-01 02:53:00
10:17 PM,28.4,28.4,100,30.16,2.5,SE,5.8,-,N/A,,Overcast,130,2012-12-01 04:17:00
10:43 PM,28.4,28.4,100,30.16,1.8,SE,6.9,-,N/A,,Overcast,130,2012-12-01 04:43:00
10:53 PM,28.9,28.0,96,30.24,2.0,SSE,6.9,-,N/A,,Overcast,160,2012-12-01 04:53:00
11:40 PM,28.4,28.4,100,30.15,1.5,SSE,8.1,-,N/A,,Overcast,150,2012-12-01 05:40:00
11:53 PM,28.9,28.0,96,30.21,1.2,SE,8.1,-,N/A,,Overcast,130,2012-12-01 05:53:00